Location: Casco Millpond
(44.5581°N, 87.6111°W)
Time: 22:49:21
(UTC+00:00)

Landsat 7 - Pass Details

Date: 16 January 2026
Orbit: 680 x 682 km, 97.9° (Epoch: 13 February)

Event Time Altitude Azimuth Distance (km) Brightness Sun altitude
Rises 23:13:16 0° 163° (SSE) 3,030 7.2 -6.5°
Reaches altitude 10° 23:15:30 10° 163° (SSE) 2,119 6.4 -6.9°
Maximum altitude 23:20:08 83° 77° (ENE) 693 3.7 -7.6°
Drops below altitude 10° 23:24:49 10° 349° (NNW) 2,134 6.2 -8.4°
Sets 23:27:04 0° 348° (NNW) 3,054 7.0 -8.8°
